This demonstration page uses our WeatherBlox Daily Observations layout. Learn more.

Left ArrowRight Arrow

41.12389, -100.76542

Hourly Observations for July 18, 2018

Temp ( °F °C ) Dew Point ( °F °C ) Humidity (%) Winds ( mph kmh ) Pressure ( in mb ) Visibility ( mi km ) Precip ( " mm )
12:53 am 00:53 Clear with Mist and Fog 69 20.6 69 20.6 100 100 SE 7 11 30.02 1017 4 6 0.00 0.00
1:53 am 01:53 Clear with Mist and Fog 68 20 68 20 100 100 SSE 8 13 30.01 1016 4 6 0.00 0.00
2:24 am 02:24 Mostly Clear with Mist and Fog 68 20 68 20 100 100 SE 8 13 30.00 1016 3 5 0.00 0.00
2:53 am 02:53 Clear with Mist and Fog 68 20 68 20 100 100 ESE 9 15 30.00 1016 4 6 0.00 0.00
3:12 am 03:12 Partly Cloudy with Mist and Fog 67 19.4 67 19.4 100 100 SE 5 7 30.00 1016 3 5 0.00 0.00
3:22 am 03:22 Mostly Cloudy with Mist and Fog 67 19.4 67 19.4 100 100 ESE 3 6 30.00 1016 3 5 0.00 0.00
3:53 am 03:53 Cloudy with Mist and Fog 68 20 68 20 100 100 ENE 5 7 30.02 1017 4 6 0.00 0.00
4:53 am 04:53 Cloudy with Mist and Fog 69 20.6 69 20.6 100 100 ENE 7 11 30.04 1017 2 2 0.00 0.00
5:02 am 05:02 Cloudy with Mist and Fog 69 20.6 69 20.6 100 100 NE 8 13 30.03 1017 1 2 0.00 0.00
5:09 am 05:09 Mostly Cloudy with Fog 69 20.6 69 20.6 100 100 NNE 7 11 30.06 1018 1 1 0.00 0.00
5:23 am 05:23 Mostly Cloudy with Nearby Thunderstorms 69 20.6 69 20.6 100 100 NNE 5 7 30.06 1018 1 1 0.00 0.00
5:53 am 05:53 Mostly Cloudy with Nearby Thunderstorms 69 20.6 69 20.6 100 100 N 9 15 30.07 1018 1 2 0.02 0.51
6:04 am 06:04 Cloudy with Nearby Thunderstorms 68 20 68 20 100 100 N 20 31 30.03 1017 2 3 0.16 4.06
6:06 am 06:06 Cloudy with Nearby Thunderstorms 67 19.4 67 19.4 100 100 NNE 17 28 30.03 1017 2 3 0.17 4.32
6:14 am 06:14 Cloudy with Nearby Thunderstorms 66 18.9 66 18.9 100 100 ENE 14 22 30.03 1017 3 4 0.24 6.10
6:16 am 06:16 Cloudy with Rain 66 18.9 66 18.9 100 100 ENE 16 26 30.03 1017 3 5 0.24 6.10
6:53 am 06:53 Cloudy with Light Rain 65 18.3 65 18.3 100 100 NW 9 15 30.06 1018 10 16 0.31 7.87
7:53 am 07:53 Mostly Sunny 64 17.8 64 17.8 100 100 SE 10 17 29.96 1014 10 16 0.09 2.29
8:53 am 08:53 Mostly Sunny 67 19.4 67 19.4 100 100 SSW 6 9 29.96 1015 10 16 0.00 0.00
9:27 am 09:27 Mostly Cloudy 70 21.1 69 20.6 97 97 S 7 11 29.94 1014 10 16 0.00 0.00
9:53 am 09:53 Cloudy 72 22.2 70 21.1 94 94 undefined N/A 29.98 1015 10 16 0.00 0.00
10:37 am 10:37 Mostly Cloudy 75 23.9 71 21.7 88 88 S 9 15 29.88 1012 10 16 0.00 0.00
10:44 am 10:44 Partly Cloudy 76 24.4 70 21.1 82 82 S 10 17 29.91 1013 10 16 0.00 0.00
10:53 am 10:53 Partly Cloudy 77 25 71 21.7 82 82 SSW 9 15 29.97 1015 10 16 0.00 0.00
11:53 am 11:53 Cloudy 78 25.6 70 21.1 76 76 SW 8 13 29.97 1015 10 16 0.00 0.00
12:53 pm 12:53 Mostly Sunny 82 27.8 71 21.7 69 69 SW 8 13 29.95 1014 10 16 0.00 0.00
1:53 pm 13:53 Mostly Sunny 85 29.4 72 22.2 65 65 W 7 11 29.93 1014 10 16 0.00 0.00
2:53 pm 14:53 Partly Cloudy 86 30 73 22.8 65 65 WSW 10 17 29.91 1013 10 16 0.00 0.00
3:53 pm 15:53 Mostly Sunny 87 30.6 72 22.2 61 61 WSW 9 15 29.89 1012 10 16 0.00 0.00
4:53 pm 16:53 Sunny 88 31.1 71 21.7 57 57 WSW 10 17 29.86 1011 10 16 0.00 0.00
5:53 pm 17:53 Sunny 88 31.1 71 21.7 57 57 SW 8 13 29.84 1010 10 16 0.00 0.00
6:53 pm 18:53 Sunny 88 31.1 71 21.7 57 57 WSW 9 15 29.84 1010 10 16 0.00 0.00
7:53 pm 19:53 Sunny 87 30.6 72 22.2 61 61 WSW 5 7 29.82 1010 10 16 0.00 0.00
8:53 pm 20:53 Sunny 82 27.8 72 22.2 72 72 SW 6 9 29.82 1010 10 16 0.00 0.00
9:53 pm 21:53 Clear 76 24.4 73 22.8 91 91 Calm 29.83 1010 10 16 0.00 0.00
10:53 pm 22:53 Clear 74 23.3 72 22.2 94 94 Calm 29.85 1011 10 16 0.00 0.00
11:53 pm 23:53 Clear 75 23.9 71 21.7 88 88 NNW 3 6 29.86 1011 10 16 0.00 0.00

Powered by AerisWeather